Hourly Data Report for August 06, 2021

LYNN LAKE
MANITOBA
Current Station Operator: NAVCAN

56°51'50.000" N
101°04'34.000" W
356.60 m
5061645
71078
YYL

Download Data

Hourly Data (August 2021)
Hourly Data Report for August 6, 2021
TIME
LST
Temp Definition
°C
Dew Point Definition
°C
Rel Hum Definition
%
Precip. Amount Definition
mm

Wind Dir Definition
10's deg

Wind Spd Definition
km/h
Visibility Definition
km
Stn Press Definition
kPa
Hmdx Definition


Wind Chill Definition


Weather Definition


00:00 9.0 6.7 85 0.0 31 8 6.4 97.01     Fog
01:00 8.4 7.2 92 0.0 36 4 6.4 97.01     Fog
02:00 7.1 6.5 96 0.0 21 4 4.8 97.03     Fog
03:00 6.3 5.4 94 0.0   0 4.8 97.03     Fog
04:00 6.3 6.3 100 0.0 2 4 4.0 97.03     Fog
05:00 5.5 5.5 100 0.0 23 5 1.2 97.06     Fog
06:00 7.1 7.1 100 0.0 4 5 6.4 97.07     Fog
07:00 9.3 8.7 96 0.0 6 8 4.8 97.08     Fog
08:00 11.8 9.6 87 0.0 9 9 6.4 97.09     Fog
09:00 14.4 9.7 73 0.0 9 11 6.4 97.09     Haze
10:00 16.5 9.8 64 0.0 14 13 6.4 97.09     Haze
11:00 17.9 8.9 55 0.0 9 13 4.8 97.06     Haze
12:00 18.9 8.9 52 0.0 10 13 3.2 97.04     Haze
13:00 19.9 8.5 47 0.0 12 15 2.4 97.00     Haze
14:00 20.5 8.0 44 0.0 13 11 2.4 96.99     Haze
15:00 21.7 9.3 45 0.0 13 9 3.6 96.93     Haze
16:00 21.4 7.9 41 0.0 15 17 2.8 96.90     Haze
17:00 21.5 8.3 42 0.0 12 15 3.2 96.88     Haze
18:00 21.3 8.8 44 0.0 13 13 4.0 96.82     Haze
19:00 20.3 9.4 49 0.0 12 15 4.0 96.81     Haze
20:00 18.8 9.9 56 0.0 13 11 4.0 96.80     Haze
21:00 16.9 10.4 65 0.0 9 11 4.0 96.79     Haze
22:00 15.2 10.2 72 0.0 11 9 2.8 96.79     Haze
23:00 14.7 10.4 75 0.0 9 9 1.2 96.76     Haze

Notes on Data Quality.

Legend

  • E = Estimated
  • M = Missing
  • NA = Not Available*
  • [empty] = Indicates an unobserved value
Date modified: